sat.trackr.live / text

‹ back to catalog

STARLINK-36837

NORAD 67858 · 2026-034J

PAYLOAD ACTIVE UNKNOWN

§ Identity

Operator
Country
US
Launch date
2026-02-20
Launch site
AFETR
Launch vehicle
Mass (kg)
RCS (m²)

Purposes: comms

External: N2YO · Heavens-Above · Gunter

§ Orbital elements

Epoch: 2026-05-25T04:31:07.868064Z

Period
93.85 min
Inclination
53.1578°
Eccentricity
0.0001439
Mean motion
15.34423542 rev/d
Perigee alt
461.6 km
Apogee alt
463.6 km
Semi-major
6,840.8 km
B*
1.0606e-3
RAAN
207.1099°
Arg perigee
96.3088°
Mean anomaly
263.8078°
Rev number
1,577

§ Raw data

STARLINK-368371 67858U 26034J   26145.18828551  .00035655  00000+0  10606-2 0  99932 67858  53.1578 207.1099 0001439  96.3088 263.8078 15.34423542 15771

JSON: /api/v1/satellites/67858 · /tle

For live sub-satellite position, see the globe view (requires WebGL).

§ Visibility from observer

Set your observer location to see the next 7 days of passes ≥ 10°. The values pass through the URL so the page stays shareable.

No JS? Fill the form by hand. The geolocation button needs JavaScript.